Time,TemperatureF,DewpointF,PressureIn,WindDirection,WindDirectionDegrees,WindSpeedMPH,WindSpeedGustMPH,Humidity,HourlyPrecipIn,Conditions,Clouds,dailyrainin,SolarRadiationWatts/m^2,SoftwareType,DateUTC
2013-08-11 00:01:00,80.9,76.0,30.10,SSW,207,5.0,5.0,85,0.00,,SKC,0.00,0.00,VWS V14.01,2013-08-11 04:01:00,
2013-08-11 00:06:00,80.9,76.0,30.10,SW,214,4.0,5.0,85,0.00,,SKC,0.00,0.00,VWS V14.01,2013-08-11 04:06:00,
2013-08-11 00:11:00,80.8,75.9,30.10,WSW,244,1.0,7.0,85,0.00,,SKC,0.00,0.00,VWS V14.01,2013-08-11 04:11:00,
2013-08-11 00:16:00,80.8,75.9,30.10,SW,224,2.0,5.0,85,0.00,,SKC,0.00,0.00,VWS V14.01,2013-08-11 04:16:00,
2013-08-11 00:21:00,80.7,75.8,30.10,SW,219,2.0,7.0,85,0.00,,SKC,0.00,0.00,VWS V14.01,2013-08-11 04:21:00,
2013-08-11 00:26:00,80.7,75.8,30.10,SW,234,2.0,7.0,85,0.00,,SKC,0.00,0.00,VWS V14.01,2013-08-11 04:26:00,
2013-08-11 00:31:00,80.6,75.7,30.09,WSW,238,2.0,4.0,85,0.00,,SKC,0.00,0.00,VWS V14.01,2013-08-11 04:31:00,
2013-08-11 00:36:00,80.5,75.6,30.09,SW,217,1.0,4.0,85,0.00,,SKC,0.00,0.00,VWS V14.01,2013-08-11 04:36:00,
2013-08-11 00:41:00,80.5,75.6,30.09,SW,229,6.0,9.0,85,0.00,,SKC,0.00,0.00,VWS V14.01,2013-08-11 04:41:00,
2013-08-11 00:46:00,80.5,75.6,30.09,SW,232,5.0,7.0,85,0.00,,SKC,0.00,0.00,VWS V14.01,2013-08-11 04:46:00,
2013-08-11 00:51:00,80.5,75.6,30.08,SW,219,3.0,7.0,85,0.00,,SKC,0.00,0.00,VWS V14.01,2013-08-11 04:51:00,
2013-08-11 00:56:00,80.6,75.7,30.08,WSW,242,4.0,7.0,85,0.00,,SKC,0.00,0.00,VWS V14.01,2013-08-11 04:56:00,
2013-08-11 01:01:00,80.6,75.7,30.08,WSW,238,3.0,7.0,85,0.00,,SKC,0.00,0.00,VWS V14.01,2013-08-11 05:01:00,
2013-08-11 01:06:00,80.5,75.6,30.08,WNW,282,1.0,4.0,85,0.00,,SKC,0.00,0.00,VWS V14.01,2013-08-11 05:06:00,
2013-08-11 01:11:00,80.5,75.6,30.08,WSW,241,2.0,7.0,85,0.00,,SKC,0.00,0.00,VWS V14.01,2013-08-11 05:11:00,
2013-08-11 01:16:00,80.4,75.5,30.08,WSW,252,6.0,7.0,85,0.00,,SKC,0.00,0.00,VWS V14.01,2013-08-11 05:16:00,
2013-08-11 01:21:00,80.4,75.8,30.08,SSW,206,1.0,8.0,86,0.00,,SKC,0.00,0.00,VWS V14.01,2013-08-11 05:21:00,
2013-08-11 01:26:00,80.4,75.8,30.08,WSW,241,5.0,8.0,86,0.00,,SKC,0.00,0.00,VWS V14.01,2013-08-11 05:26:00,
2013-08-11 01:31:00,80.4,75.8,30.08,SW,215,5.0,7.0,86,0.00,,SKC,0.00,0.00,VWS V14.01,2013-08-11 05:31:00,
2013-08-11 01:36:00,80.3,75.7,30.08,SSW,204,7.0,7.0,86,0.00,,SKC,0.00,0.00,VWS V14.01,2013-08-11 05:36:00,
2013-08-11 01:41:00,80.2,76.0,30.08,West,263,3.0,8.0,87,0.00,,SKC,0.00,0.00,VWS V14.01,2013-08-11 05:41:00,
2013-08-11 01:46:00,80.2,76.0,30.08,WSW,248,4.0,6.0,87,0.00,,SKC,0.00,0.00,VWS V14.01,2013-08-11 05:46:00,
2013-08-11 01:51:00,80.1,75.9,30.08,WSW,239,4.0,6.0,87,0.00,,SKC,0.00,0.00,VWS V14.01,2013-08-11 05:51:00,
2013-08-11 01:57:00,80.0,75.8,30.07,WSW,239,6.0,7.0,87,0.00,,SKC,0.00,0.00,VWS V14.01,2013-08-11 05:57:00,
2013-08-11 02:02:00,80.0,75.8,30.07,SW,229,6.0,6.0,87,0.00,,SKC,0.00,0.00,VWS V14.01,2013-08-11 06:02:00,
2013-08-11 02:07:00,80.0,75.8,30.07,SW,223,3.0,4.0,87,0.00,,SKC,0.00,0.00,VWS V14.01,2013-08-11 06:07:00,
2013-08-11 02:12:00,80.0,76.1,30.07,WSW,257,3.0,4.0,88,0.00,,SKC,0.00,0.00,VWS V14.01,2013-08-11 06:12:00,
2013-08-11 02:17:00,80.0,76.1,30.07,SW,227,2.0,6.0,88,0.00,,SKC,0.00,0.00,VWS V14.01,2013-08-11 06:17:00,
2013-08-11 02:22:00,79.9,76.0,30.07,SW,224,3.0,5.0,88,0.00,,SKC,0.00,0.00,VWS V14.01,2013-08-11 06:22:00,
2013-08-11 02:27:00,79.9,76.0,30.07,SW,223,6.0,7.0,88,0.00,,SKC,0.00,0.00,VWS V14.01,2013-08-11 06:27:00,
2013-08-11 02:33:00,79.8,75.9,30.07,WSW,238,7.0,7.0,88,0.00,,SKC,0.00,0.00,VWS V14.01,2013-08-11 06:33:00,
2013-08-11 02:38:00,79.8,75.9,30.07,SSW,209,2.0,4.0,88,0.00,,SKC,0.00,0.00,VWS V14.01,2013-08-11 06:38:00,
2013-08-11 02:43:00,79.8,75.9,30.08,WSW,244,2.0,6.0,88,0.00,,SKC,0.00,0.00,VWS V14.01,2013-08-11 06:43:00,
2013-08-11 02:49:00,79.7,75.8,30.08,SW,214,4.0,6.0,88,0.00,,SKC,0.00,0.00,VWS V14.01,2013-08-11 06:49:00,
2013-08-11 02:54:00,79.7,75.8,30.08,SW,219,2.0,6.0,88,0.00,,SKC,0.00,0.00,VWS V14.01,2013-08-11 06:54:00,
2013-08-11 02:59:00,79.6,75.7,30.08,WSW,241,6.0,7.0,88,0.00,,SKC,0.00,0.00,VWS V14.01,2013-08-11 06:59:00,
2013-08-11 03:04:00,79.6,75.7,30.08,SSW,213,5.0,8.0,88,0.00,,SKC,0.00,0.00,VWS V14.01,2013-08-11 07:04:00,
2013-08-11 03:09:00,79.7,75.8,30.08,SSW,203,5.0,7.0,88,0.00,,SKC,0.00,0.00,VWS V14.01,2013-08-11 07:09:00,
2013-08-11 03:14:00,79.7,75.8,30.08,SSW,206,6.0,6.0,88,0.00,,SKC,0.00,0.00,VWS V14.01,2013-08-11 07:14:00,
2013-08-11 03:19:00,79.7,75.8,30.08,SW,229,4.0,6.0,88,0.00,,SKC,0.00,0.00,VWS V14.01,2013-08-11 07:19:00,
2013-08-11 03:24:00,79.6,75.7,30.08,WSW,246,1.0,6.0,88,0.00,,SKC,0.00,0.00,VWS V14.01,2013-08-11 07:24:00,
2013-08-11 03:29:00,79.6,75.7,30.08,WNW,291,2.0,4.0,88,0.00,,SKC,0.00,0.00,VWS V14.01,2013-08-11 07:29:00,
2013-08-11 03:34:00,79.5,76.0,30.08,SW,218,5.0,5.0,89,0.00,,SKC,0.00,0.00,VWS V14.01,2013-08-11 07:34:00,
2013-08-11 03:39:00,79.4,75.9,30.08,West,263,3.0,7.0,89,0.00,,SKC,0.00,0.00,VWS V14.01,2013-08-11 07:39:00,
2013-08-11 03:44:00,79.4,75.9,30.08,SW,221,3.0,5.0,89,0.00,,SKC,0.00,0.00,VWS V14.01,2013-08-11 07:44:00,
2013-08-11 03:49:00,79.3,75.8,30.08,WSW,248,3.0,6.0,89,0.00,,SKC,0.00,0.00,VWS V14.01,2013-08-11 07:49:00,
2013-08-11 03:54:00,79.2,75.7,30.08,WSW,244,1.0,3.0,89,0.00,,SKC,0.00,0.00,VWS V14.01,2013-08-11 07:54:00,
2013-08-11 04:00:00,79.1,75.6,30.09,SW,236,3.0,4.0,89,0.00,,SKC,0.00,0.00,VWS V14.01,2013-08-11 08:00:00,
2013-08-11 04:05:00,79.0,75.8,30.09,West,279,1.0,5.0,90,0.00,,SKC,0.00,0.00,VWS V14.01,2013-08-11 08:05:00,
2013-08-11 04:10:00,78.9,75.7,30.08,WSW,255,2.0,8.0,90,0.00,,SKC,0.00,0.00,VWS V14.01,2013-08-11 08:10:00,
2013-08-11 04:15:00,78.9,75.7,30.09,WNW,290,1.0,4.0,90,0.00,,SKC,0.00,0.00,VWS V14.01,2013-08-11 08:15:00,
2013-08-11 04:20:00,78.8,75.6,30.09,SW,215,3.0,7.0,90,0.00,,SKC,0.00,0.00,VWS V14.01,2013-08-11 08:20:00,
2013-08-11 04:25:00,78.8,75.9,30.09,SSW,209,7.0,9.0,91,0.00,,SKC,0.00,0.00,VWS V14.01,2013-08-11 08:25:00,
2013-08-11 04:30:00,78.8,75.9,30.09,SW,234,3.0,9.0,91,0.00,,SKC,0.00,0.00,VWS V14.01,2013-08-11 08:30:00,
2013-08-11 04:35:00,78.8,75.9,30.09,West,260,3.0,5.0,91,0.00,,SKC,0.00,0.00,VWS V14.01,2013-08-11 08:35:00,
2013-08-11 04:41:00,78.7,75.9,30.09,WNW,282,1.0,5.0,91,0.00,,SKC,0.00,0.00,VWS V14.01,2013-08-11 08:41:00,
2013-08-11 04:46:00,78.7,75.9,30.09,West,276,1.0,4.0,91,0.00,,SKC,0.00,0.00,VWS V14.01,2013-08-11 08:46:00,
2013-08-11 04:51:00,78.7,75.9,30.09,SW,222,4.0,6.0,91,0.00,,SKC,0.00,0.00,VWS V14.01,2013-08-11 08:51:00,
2013-08-11 04:56:00,78.7,75.9,30.09,WSW,242,3.0,4.0,91,0.00,,SKC,0.00,0.00,VWS V14.01,2013-08-11 08:56:00,
2013-08-11 05:01:00,78.5,75.7,30.10,South,184,3.0,5.0,91,0.00,,SKC,0.00,0.00,VWS V14.01,2013-08-11 09:01:00,
2013-08-11 05:06:00,78.5,75.7,30.10,WSW,247,1.0,6.0,91,0.00,,SKC,0.00,0.00,VWS V14.01,2013-08-11 09:06:00,
2013-08-11 05:11:00,78.4,75.9,30.10,WSW,246,4.0,5.0,92,0.00,,SKC,0.00,0.00,VWS V14.01,2013-08-11 09:11:00,
2013-08-11 05:16:00,78.3,75.8,30.10,West,269,4.0,5.0,92,0.00,,SKC,0.00,0.00,VWS V14.01,2013-08-11 09:16:00,
2013-08-11 05:21:00,78.2,75.7,30.09,SW,223,4.0,4.0,92,0.00,,SKC,0.00,0.00,VWS V14.01,2013-08-11 09:21:00,
2013-08-11 05:26:00,78.1,75.6,30.09,WNW,293,2.0,5.0,92,0.00,,SKC,0.00,0.00,VWS V14.01,2013-08-11 09:26:00,
2013-08-11 05:31:00,78.1,75.9,30.10,WNW,290,0.0,7.0,93,0.00,,SKC,0.00,0.00,VWS V14.01,2013-08-11 09:31:00,
2013-08-11 05:36:00,78.0,75.8,30.10,WSW,249,1.0,6.0,93,0.00,,SKC,0.00,0.00,VWS V14.01,2013-08-11 09:36:00,
2013-08-11 05:41:00,78.0,75.8,30.10,West,277,1.0,8.0,93,0.00,,SKC,0.00,0.00,VWS V14.01,2013-08-11 09:41:00,
2013-08-11 05:46:00,77.9,75.7,30.10,WSW,243,3.0,6.0,93,0.00,,SKC,0.00,0.00,VWS V14.01,2013-08-11 09:46:00,
2013-08-11 05:51:00,77.9,75.7,30.10,NNW,330,0.0,6.0,93,0.00,,SKC,0.00,0.00,VWS V14.01,2013-08-11 09:51:00,
2013-08-11 05:56:00,77.9,75.7,30.10,West,261,2.0,5.0,93,0.00,,SKC,0.00,0.00,VWS V14.01,2013-08-11 09:56:00,
2013-08-11 06:01:00,77.9,75.7,30.10,SSW,203,2.0,6.0,93,0.00,,SKC,0.00,0.00,VWS V14.01,2013-08-11 10:01:00,
2013-08-11 06:06:00,77.8,75.6,30.10,SW,216,3.0,4.0,93,0.00,,SKC,0.00,0.00,VWS V14.01,2013-08-11 10:06:00,
2013-08-11 06:12:00,77.8,75.6,30.10,SW,232,2.0,2.0,93,0.00,,SKC,0.00,0.00,VWS V14.01,2013-08-11 10:12:00,
2013-08-11 06:17:00,77.8,75.6,30.10,WSW,246,3.0,4.0,93,0.00,,SKC,0.00,0.00,VWS V14.01,2013-08-11 10:17:00,
2013-08-11 06:22:00,77.7,75.5,30.10,SW,219,2.0,3.0,93,0.00,,SKC,0.00,0.00,VWS V14.01,2013-08-11 10:22:00,
2013-08-11 06:27:00,77.7,75.5,30.10,West,265,2.0,6.0,93,0.00,,SKC,0.00,0.00,VWS V14.01,2013-08-11 10:27:00,
2013-08-11 06:33:00,77.6,75.7,30.10,WNW,288,2.0,4.0,94,0.00,,SKC,0.00,0.00,VWS V14.01,2013-08-11 10:33:00,
2013-08-11 06:38:00,77.6,75.7,30.11,WSW,246,2.0,2.0,94,0.00,,SKC,0.00,0.00,VWS V14.01,2013-08-11 10:38:00,
2013-08-11 06:43:00,77.6,75.7,30.11,West,260,2.0,2.0,94,0.00,,SKC,0.00,7.00,VWS V14.01,2013-08-11 10:43:00,
2013-08-11 06:48:00,77.6,75.7,30.11,WNW,294,1.0,3.0,94,0.00,,SKC,0.00,11.00,VWS V14.01,2013-08-11 10:48:00,
2013-08-11 06:53:00,77.6,75.7,30.11,West,279,1.0,2.0,94,0.00,,SKC,0.00,12.00,VWS V14.01,2013-08-11 10:53:00,
2013-08-11 06:58:00,77.5,75.6,30.11,West,267,4.0,4.0,94,0.00,,SKC,0.00,16.00,VWS V14.01,2013-08-11 10:58:00,
2013-08-11 07:03:00,77.6,75.7,30.11,West,265,2.0,4.0,94,0.00,,FEW055,0.00,21.00,VWS V14.01,2013-08-11 11:03:00,
2013-08-11 07:08:00,77.6,75.7,30.11,West,263,2.0,4.0,94,0.00,,FEW055,0.00,39.00,VWS V14.01,2013-08-11 11:08:00,
2013-08-11 07:13:00,77.6,75.7,30.11,South,190,2.0,6.0,94,0.00,,FEW055,0.00,49.00,VWS V14.01,2013-08-11 11:13:00,
2013-08-11 07:18:00,77.8,75.9,30.12,WSW,246,2.0,4.0,94,0.00,,FEW055,0.00,60.00,VWS V14.01,2013-08-11 11:18:00,
2013-08-11 07:23:00,77.9,76.0,30.12,West,262,1.0,6.0,94,0.00,,FEW055,0.00,74.00,VWS V14.01,2013-08-11 11:23:00,
2013-08-11 07:29:00,78.2,76.3,30.12,West,280,2.0,3.0,94,0.00,,FEW055,0.00,93.00,VWS V14.01,2013-08-11 11:29:00,
2013-08-11 07:34:00,78.4,76.2,30.12,SSW,202,2.0,3.0,93,0.00,,FEW055,0.00,109.00,VWS V14.01,2013-08-11 11:34:00,
2013-08-11 07:39:00,78.7,76.2,30.12,West,267,1.0,6.0,92,0.00,,FEW055,0.00,139.00,VWS V14.01,2013-08-11 11:39:00,
2013-08-11 07:45:00,78.9,76.4,30.12,NW,304,1.0,3.0,92,0.00,,FEW055,0.00,155.00,VWS V14.01,2013-08-11 11:45:00,
2013-08-11 07:50:00,79.2,76.7,30.12,WNW,295,2.0,5.0,92,0.00,,FEW055,0.00,167.00,VWS V14.01,2013-08-11 11:50:00,
2013-08-11 07:55:00,79.6,76.4,30.12,NNW,346,2.0,6.0,90,0.00,,FEW055,0.00,192.00,VWS V14.01,2013-08-11 11:55:00,
2013-08-11 08:00:00,79.8,76.6,30.12,WNW,295,0.0,6.0,90,0.00,,FEW055,0.00,209.00,VWS V14.01,2013-08-11 12:00:00,
2013-08-11 08:05:00,80.2,76.0,30.12,WSW,246,3.0,9.0,87,0.00,,FEW025,0.00,223.00,VWS V14.01,2013-08-11 12:05:00,
2013-08-11 08:10:00,80.4,75.8,30.12,SW,221,1.0,8.0,86,0.00,,FEW025,0.00,220.00,VWS V14.01,2013-08-11 12:10:00,
2013-08-11 08:15:00,80.7,76.1,30.12,WNW,297,8.0,8.0,86,0.00,,FEW025,0.00,230.00,VWS V14.01,2013-08-11 12:15:00,
2013-08-11 08:20:00,80.9,76.0,30.12,NNW,331,4.0,9.0,85,0.00,,FEW025,0.00,265.00,VWS V14.01,2013-08-11 12:20:00,
2013-08-11 08:25:00,81.3,76.4,30.12,NW,320,3.0,7.0,85,0.00,,FEW025,0.00,279.00,VWS V14.01,2013-08-11 12:25:00,
2013-08-11 08:30:00,81.7,76.0,30.11,West,263,7.0,8.0,83,0.00,,FEW025,0.00,309.00,VWS V14.01,2013-08-11 12:30:00,
2013-08-11 08:35:00,82.1,76.4,30.12,North,5,3.0,7.0,83,0.00,,FEW025,0.00,329.00,VWS V14.01,2013-08-11 12:35:00,
2013-08-11 08:40:00,82.3,76.3,30.12,WNW,296,5.0,7.0,82,0.00,,FEW025,0.00,345.00,VWS V14.01,2013-08-11 12:40:00,
2013-08-11 08:45:00,82.7,76.3,30.12,WSW,238,3.0,7.0,81,0.00,,FEW025,0.00,364.00,VWS V14.01,2013-08-11 12:45:00,
2013-08-11 08:50:00,83.0,76.6,30.12,NNW,331,0.0,8.0,81,0.00,,FEW025,0.00,383.00,VWS V14.01,2013-08-11 12:50:00,
2013-08-11 08:55:00,83.4,76.6,30.12,WNW,292,4.0,7.0,80,0.00,,FEW025,0.00,401.00,VWS V14.01,2013-08-11 12:55:00,
2013-08-11 09:00:00,83.4,76.2,30.12,NNW,336,6.0,8.0,79,0.00,,CLR,0.00,415.00,VWS V14.01,2013-08-11 13:00:00,
2013-08-11 09:05:00,84.1,76.5,30.12,West,266,3.0,6.0,78,0.00,,CLR,0.00,431.00,VWS V14.01,2013-08-11 13:05:00,
2013-08-11 09:10:00,84.1,76.5,30.12,SW,221,4.0,7.0,78,0.00,,CLR,0.00,446.00,VWS V14.01,2013-08-11 13:10:00,
2013-08-11 09:15:00,84.3,76.7,30.12,NNW,342,3.0,7.0,78,0.00,,CLR,0.00,464.00,VWS V14.01,2013-08-11 13:15:00,
2013-08-11 09:20:00,84.9,76.9,30.12,SSE,155,3.0,8.0,77,0.00,,CLR,0.00,480.00,VWS V14.01,2013-08-11 13:20:00,
2013-08-11 09:25:00,85.1,76.7,30.12,WSW,246,4.0,6.0,76,0.00,,CLR,0.00,497.00,VWS V14.01,2013-08-11 13:25:00,
2013-08-11 09:30:00,85.4,76.6,30.11,SW,217,3.0,6.0,75,0.00,,CLR,0.00,513.00,VWS V14.01,2013-08-11 13:30:00,
2013-08-11 09:35:00,85.8,76.6,30.11,WNW,286,4.0,7.0,74,0.00,,CLR,0.00,529.00,VWS V14.01,2013-08-11 13:35:00,
2013-08-11 09:41:00,86.3,76.6,30.11,WSW,238,3.0,5.0,73,0.00,,CLR,0.00,547.00,VWS V14.01,2013-08-11 13:41:00,
2013-08-11 09:46:00,87.0,76.9,30.12,SW,234,5.0,6.0,72,0.00,,CLR,0.00,561.00,VWS V14.01,2013-08-11 13:46:00,
2013-08-11 09:51:00,87.1,77.0,30.11,West,263,5.0,7.0,72,0.00,,CLR,0.00,577.00,VWS V14.01,2013-08-11 13:51:00,
2013-08-11 09:56:00,87.6,77.0,30.12,West,267,6.0,6.0,71,0.00,,CLR,0.00,589.00,VWS V14.01,2013-08-11 13:56:00,
2013-08-11 10:01:00,87.7,76.7,30.11,West,259,3.0,7.0,70,0.00,,CLR,0.00,605.00,VWS V14.01,2013-08-11 14:01:00,
2013-08-11 10:06:00,87.9,76.5,30.11,WNW,297,3.0,6.0,69,0.00,,CLR,0.00,621.00,VWS V14.01,2013-08-11 14:06:00,
2013-08-11 10:11:00,88.8,76.9,30.11,West,274,4.0,5.0,68,0.00,,CLR,0.00,629.00,VWS V14.01,2013-08-11 14:11:00,
2013-08-11 10:16:00,88.7,76.8,30.11,WSW,239,4.0,6.0,68,0.00,,CLR,0.00,645.00,VWS V14.01,2013-08-11 14:16:00,
2013-08-11 10:21:00,89.1,77.2,30.11,SW,230,4.0,6.0,68,0.00,,SKC,0.00,659.00,VWS V14.01,2013-08-11 14:21:00,
2013-08-11 10:26:00,89.6,77.2,30.11,SW,227,6.0,6.0,67,0.00,,SKC,0.00,677.00,VWS V14.01,2013-08-11 14:26:00,
2013-08-11 10:31:00,89.6,77.2,30.11,SW,224,6.0,7.0,67,0.00,,SKC,0.00,693.00,VWS V14.01,2013-08-11 14:31:00,
2013-08-11 10:36:00,89.9,76.6,30.11,SSW,194,4.0,8.0,65,0.00,,SKC,0.00,705.00,VWS V14.01,2013-08-11 14:36:00,
2013-08-11 10:41:00,90.5,77.1,30.11,SSW,207,5.0,5.0,65,0.00,,SKC,0.00,715.00,VWS V14.01,2013-08-11 14:41:00,
2013-08-11 10:46:00,90.8,76.5,30.11,WNW,287,3.0,6.0,63,0.00,,SKC,0.00,729.00,VWS V14.01,2013-08-11 14:46:00,
2013-08-11 10:51:00,90.8,76.5,30.11,SSW,194,3.0,6.0,63,0.00,,SKC,0.00,744.00,VWS V14.01,2013-08-11 14:51:00,
2013-08-11 10:56:00,90.9,76.6,30.11,SSW,196,5.0,8.0,63,0.00,,SKC,0.00,754.00,VWS V14.01,2013-08-11 14:56:00,
2013-08-11 11:01:00,91.2,76.4,30.11,West,262,4.0,4.0,62,0.00,,CLR,0.00,758.00,VWS V14.01,2013-08-11 15:01:00,
2013-08-11 11:06:00,91.5,77.1,30.11,SW,226,3.0,7.0,63,0.00,,CLR,0.00,768.00,VWS V14.01,2013-08-11 15:06:00,
2013-08-11 11:11:00,92.4,77.0,30.11,SW,229,3.0,3.0,61,0.00,,CLR,0.00,779.00,VWS V14.01,2013-08-11 15:11:00,
2013-08-11 11:16:00,92.6,76.7,30.11,South,190,4.0,5.0,60,0.00,,CLR,0.00,796.00,VWS V14.01,2013-08-11 15:16:00,
2013-08-11 11:21:00,92.5,76.6,30.11,NNW,346,4.0,8.0,60,0.00,,CLR,0.00,800.00,VWS V14.01,2013-08-11 15:21:00,
2013-08-11 11:26:00,92.7,76.3,30.11,WSW,257,5.0,5.0,59,0.00,,CLR,0.00,828.00,VWS V14.01,2013-08-11 15:26:00,
2013-08-11 11:32:00,92.5,75.6,30.11,NW,309,4.0,4.0,58,0.00,,CLR,0.00,833.00,VWS V14.01,2013-08-11 15:32:00,
2013-08-11 11:37:00,92.6,75.7,30.11,North,355,2.0,4.0,58,0.00,,CLR,0.00,837.00,VWS V14.01,2013-08-11 15:37:00,
2013-08-11 11:42:00,93.1,76.1,30.11,WNW,292,4.0,7.0,58,0.00,,CLR,0.00,849.00,VWS V14.01,2013-08-11 15:42:00,
2013-08-11 11:47:00,93.4,75.9,30.11,NW,304,2.0,4.0,57,0.00,,CLR,0.00,912.00,VWS V14.01,2013-08-11 15:47:00,
2013-08-11 11:52:00,93.4,75.9,30.10,WNW,302,3.0,6.0,57,0.00,,CLR,0.00,914.00,VWS V14.01,2013-08-11 15:52:00,
2013-08-11 11:57:00,93.1,76.1,30.10,NNE,20,3.0,6.0,58,0.00,,CLR,0.00,916.00,VWS V14.01,2013-08-11 15:57:00,
2013-08-11 12:02:00,93.5,76.0,30.10,SW,217,4.0,8.0,57,0.00,,SCT040,0.00,923.00,VWS V14.01,2013-08-11 16:02:00,
2013-08-11 12:08:00,93.1,75.6,30.10,West,279,1.0,10.0,57,0.00,,SCT040,0.00,944.00,VWS V14.01,2013-08-11 16:08:00,
2013-08-11 12:13:00,93.7,75.6,30.10,NNE,19,6.0,6.0,56,0.00,,SCT040,0.00,882.00,VWS V14.01,2013-08-11 16:13:00,
2013-08-11 12:18:00,93.0,75.5,30.10,SW,236,3.0,4.0,57,0.00,,SCT040,0.00,209.00,VWS V14.01,2013-08-11 16:18:00,
2013-08-11 12:23:00,92.7,75.8,30.10,West,275,0.0,3.0,58,0.00,,SCT040,0.00,197.00,VWS V14.01,2013-08-11 16:23:00,
2013-08-11 12:28:00,92.8,75.3,30.10,WSW,256,3.0,8.0,57,0.00,,SCT040,0.00,983.00,VWS V14.01,2013-08-11 16:28:00,
2013-08-11 12:33:00,93.4,75.9,30.10,SSW,211,2.0,9.0,57,0.00,,SCT040,0.00,1021.00,VWS V14.01,2013-08-11 16:33:00,
2013-08-11 12:39:00,92.9,75.9,30.09,SSW,212,7.0,8.0,58,0.00,,SCT040,0.00,1100.00,VWS V14.01,2013-08-11 16:39:00,
2013-08-11 12:44:00,90.9,78.0,30.09,SSW,209,7.0,8.0,66,0.00,,SCT040,0.00,1039.00,VWS V14.01,2013-08-11 16:44:00,
2013-08-11 12:49:00,89.7,77.7,30.09,SW,236,4.0,8.0,68,0.00,,SCT040,0.00,183.00,VWS V14.01,2013-08-11 16:49:00,
2013-08-11 12:54:00,89.4,78.3,30.09,South,184,10.0,10.0,70,0.00,,SCT040,0.00,598.00,VWS V14.01,2013-08-11 16:54:00,
2013-08-11 12:59:00,90.0,78.5,30.09,SW,225,4.0,6.0,69,0.00,,SCT040,0.00,1011.00,VWS V14.01,2013-08-11 16:59:00,
2013-08-11 13:04:00,91.6,78.2,30.09,SSW,207,7.0,8.0,65,0.00,,BKN045,0.00,246.00,VWS V14.01,2013-08-11 17:04:00,
2013-08-11 13:09:00,90.7,79.1,30.09,SSW,212,9.0,13.0,69,0.00,,BKN045,0.00,1053.00,VWS V14.01,2013-08-11 17:09:00,
2013-08-11 13:14:00,89.5,78.9,30.09,SSW,209,7.0,11.0,71,0.00,,BKN045,0.00,174.00,VWS V14.01,2013-08-11 17:14:00,
2013-08-11 13:19:00,89.4,79.6,30.09,WSW,240,5.0,9.0,73,0.00,,BKN045,0.00,1002.00,VWS V14.01,2013-08-11 17:19:00,
2013-08-11 13:24:00,90.6,79.5,30.08,SW,218,6.0,11.0,70,0.00,,BKN045,0.00,976.00,VWS V14.01,2013-08-11 17:24:00,
2013-08-11 13:29:00,90.8,79.2,30.08,SSW,194,1.0,7.0,69,0.00,,BKN045,0.00,990.00,VWS V14.01,2013-08-11 17:29:00,
2013-08-11 13:34:00,91.9,78.0,30.08,SW,231,8.0,8.0,64,0.00,,BKN045,0.00,1032.00,VWS V14.01,2013-08-11 17:34:00,
2013-08-11 13:39:00,91.0,78.5,30.08,SSW,212,7.0,10.0,67,0.00,,BKN045,0.00,1011.00,VWS V14.01,2013-08-11 17:39:00,
2013-08-11 13:45:00,89.9,78.4,30.08,SSW,211,6.0,11.0,69,0.00,,BKN045,0.00,1020.00,VWS V14.01,2013-08-11 17:45:00,
2013-08-11 13:50:00,89.9,79.2,30.07,SW,236,7.0,11.0,71,0.00,,BKN045,0.00,986.00,VWS V14.01,2013-08-11 17:50:00,
2013-08-11 13:55:00,91.1,79.5,30.07,South,179,7.0,10.0,69,0.00,,BKN045,0.00,949.00,VWS V14.01,2013-08-11 17:55:00,
2013-08-11 14:00:00,90.7,79.1,30.07,SW,223,8.0,12.0,69,0.00,,BKN045,0.00,979.00,VWS V14.01,2013-08-11 18:00:00,
2013-08-11 14:05:00,91.1,79.5,30.07,SW,225,13.0,13.0,69,0.00,,BKN045,0.00,991.00,VWS V14.01,2013-08-11 18:05:00,
2013-08-11 14:10:00,90.8,79.2,30.07,SW,215,11.0,14.0,69,0.00,,BKN046,0.00,1000.00,VWS V14.01,2013-08-11 18:10:00,
2013-08-11 14:15:00,90.3,79.6,30.07,SW,227,8.0,10.0,71,0.00,,BKN046,0.00,202.00,VWS V14.01,2013-08-11 18:15:00,
2013-08-11 14:20:00,89.0,79.6,30.07,SW,229,3.0,11.0,74,0.00,,BKN046,0.00,149.00,VWS V14.01,2013-08-11 18:20:00,
2013-08-11 14:26:00,88.8,79.4,30.07,SW,215,6.0,10.0,74,0.00,,BKN046,0.00,972.00,VWS V14.01,2013-08-11 18:26:00,
2013-08-11 14:31:00,89.6,79.8,30.07,SSW,192,7.0,10.0,73,0.00,,BKN046,0.00,953.00,VWS V14.01,2013-08-11 18:31:00,
2013-08-11 14:36:00,90.0,80.2,30.07,SW,226,8.0,14.0,73,0.00,,BKN046,0.00,935.00,VWS V14.01,2013-08-11 18:36:00,
2013-08-11 14:41:00,89.5,80.1,30.06,SSW,205,8.0,12.0,74,0.00,,BKN046,0.00,942.00,VWS V14.01,2013-08-11 18:41:00,
2013-08-11 14:46:00,89.5,80.5,30.06,SW,229,12.0,12.0,75,0.00,,BKN046,0.00,248.00,VWS V14.01,2013-08-11 18:46:00,
2013-08-11 14:51:00,88.5,80.0,30.06,SW,234,7.0,14.0,76,0.00,,BKN046,0.00,909.00,VWS V14.01,2013-08-11 18:51:00,
2013-08-11 14:56:00,88.3,80.2,30.06,SW,219,9.0,12.0,77,0.00,,BKN046,0.00,879.00,VWS V14.01,2013-08-11 18:56:00,
2013-08-11 15:01:00,88.4,79.9,30.06,SW,223,10.0,16.0,76,0.00,,BKN045,0.00,891.00,VWS V14.01,2013-08-11 19:01:00,
2013-08-11 15:06:00,88.6,80.1,30.05,SW,230,5.0,15.0,76,0.00,,BKN045,0.00,902.00,VWS V14.01,2013-08-11 19:06:00,
2013-08-11 15:11:00,88.4,79.9,30.05,South,185,7.0,13.0,76,0.00,,BKN045,0.00,137.00,VWS V14.01,2013-08-11 19:11:00,
2013-08-11 15:16:00,88.2,80.1,30.05,SW,235,11.0,14.0,77,0.00,,BKN045,0.00,847.00,VWS V14.01,2013-08-11 19:16:00,
2013-08-11 15:21:00,88.1,80.0,30.05,WSW,241,9.0,15.0,77,0.00,,BKN045,0.00,90.00,VWS V14.01,2013-08-11 19:21:00,
2013-08-11 15:26:00,87.0,79.7,30.05,SSW,205,10.0,14.0,79,0.00,,BKN045,0.00,128.00,VWS V14.01,2013-08-11 19:26:00,
2013-08-11 15:31:00,86.4,79.9,30.05,SSW,213,7.0,16.0,81,0.00,,BKN045,0.00,174.00,VWS V14.01,2013-08-11 19:31:00,
2013-08-11 15:36:00,86.8,79.9,30.04,SSW,197,7.0,16.0,80,0.00,,BKN045,0.00,788.00,VWS V14.01,2013-08-11 19:36:00,
2013-08-11 15:41:00,87.2,79.9,30.04,SSW,208,9.0,15.0,79,0.00,,BKN045,0.00,761.00,VWS V14.01,2013-08-11 19:41:00,
2013-08-11 15:46:00,87.2,79.9,30.04,SW,224,9.0,15.0,79,0.00,,BKN045,0.00,747.00,VWS V14.01,2013-08-11 19:46:00,
2013-08-11 15:51:00,87.4,80.1,30.04,SW,234,9.0,15.0,79,0.00,,BKN045,0.00,731.00,VWS V14.01,2013-08-11 19:51:00,
2013-08-11 15:56:00,87.5,80.2,30.04,SW,234,11.0,13.0,79,0.00,,BKN045,0.00,717.00,VWS V14.01,2013-08-11 19:56:00,
2013-08-11 16:01:00,87.5,80.2,30.04,South,177,6.0,15.0,79,0.00,,SCT060,0.00,710.00,VWS V14.01,2013-08-11 20:01:00,
2013-08-11 16:06:00,87.5,80.2,30.03,SW,228,9.0,15.0,79,0.00,,SCT060,0.00,693.00,VWS V14.01,2013-08-11 20:06:00,
2013-08-11 16:11:00,87.7,80.0,30.03,SSW,204,8.0,17.0,78,0.00,,SCT060,0.00,679.00,VWS V14.01,2013-08-11 20:11:00,
2013-08-11 16:16:00,87.6,79.9,30.04,SSW,197,10.0,10.0,78,0.00,,SCT060,0.00,666.00,VWS V14.01,2013-08-11 20:16:00,
2013-08-11 16:21:00,87.5,80.2,30.04,SW,228,10.0,10.0,79,0.00,,SCT060,0.00,652.00,VWS V14.01,2013-08-11 20:21:00,
2013-08-11 16:26:00,87.5,79.8,30.04,SW,228,8.0,8.0,78,0.00,,SCT060,0.00,645.00,VWS V14.01,2013-08-11 20:26:00,
2013-08-11 16:31:00,87.4,79.7,30.04,SSW,194,6.0,15.0,78,0.00,,SCT060,0.00,624.00,VWS V14.01,2013-08-11 20:31:00,
2013-08-11 16:36:00,87.7,80.0,30.03,South,188,8.0,15.0,78,0.00,,SCT060,0.00,612.00,VWS V14.01,2013-08-11 20:36:00,
2013-08-11 16:42:00,87.9,79.8,30.04,South,179,15.0,15.0,77,0.00,,SCT060,0.00,598.00,VWS V14.01,2013-08-11 20:42:00,
2013-08-11 16:47:00,87.5,79.8,30.03,WSW,247,10.0,15.0,78,0.00,,SCT060,0.00,584.00,VWS V14.01,2013-08-11 20:47:00,
2013-08-11 16:52:00,87.2,79.5,30.04,SW,219,12.0,14.0,78,0.00,,SCT060,0.00,568.00,VWS V14.01,2013-08-11 20:52:00,
2013-08-11 16:57:00,87.3,79.6,30.03,SSW,199,6.0,7.0,78,0.00,,SCT060,0.00,557.00,VWS V14.01,2013-08-11 20:57:00,
2013-08-11 17:02:00,87.5,79.0,30.03,SSW,200,12.0,14.0,76,0.00,,SCT045,0.00,548.00,VWS V14.01,2013-08-11 21:02:00,
2013-08-11 17:07:00,87.4,78.9,30.03,SW,219,13.0,13.0,76,0.00,,SCT045,0.00,531.00,VWS V14.01,2013-08-11 21:07:00,
2013-08-11 17:12:00,87.1,79.0,30.04,SSW,207,8.0,10.0,77,0.00,,SCT045,0.00,534.00,VWS V14.01,2013-08-11 21:12:00,
2013-08-11 17:17:00,87.1,79.0,30.04,SSW,207,12.0,14.0,77,0.00,,SCT045,0.00,489.00,VWS V14.01,2013-08-11 21:17:00,
2013-08-11 17:22:00,86.9,79.2,30.03,SW,218,6.0,12.0,78,0.00,,SCT045,0.00,468.00,VWS V14.01,2013-08-11 21:22:00,
2013-08-11 17:27:00,86.7,79.4,30.03,SW,225,11.0,14.0,79,0.00,,SCT045,0.00,455.00,VWS V14.01,2013-08-11 21:27:00,
2013-08-11 17:32:00,86.6,79.3,30.03,SW,219,12.0,15.0,79,0.00,,SCT045,0.00,436.00,VWS V14.01,2013-08-11 21:32:00,
2013-08-11 17:38:00,86.3,79.4,30.03,WSW,246,6.0,14.0,80,0.00,,SCT045,0.00,420.00,VWS V14.01,2013-08-11 21:38:00,
2013-08-11 17:43:00,86.4,79.5,30.03,SSW,193,7.0,11.0,80,0.00,,SCT045,0.00,404.00,VWS V14.01,2013-08-11 21:43:00,
2013-08-11 17:48:00,86.6,79.3,30.03,SW,229,8.0,10.0,79,0.00,,SCT045,0.00,329.00,VWS V14.01,2013-08-11 21:48:00,
2013-08-11 17:53:00,86.6,79.3,30.04,SW,223,7.0,13.0,79,0.00,,SCT045,0.00,376.00,VWS V14.01,2013-08-11 21:53:00,
2013-08-11 17:58:00,86.4,79.1,30.03,WSW,247,10.0,12.0,79,0.00,,SCT045,0.00,60.00,VWS V14.01,2013-08-11 21:58:00,
2013-08-11 18:03:00,85.9,79.4,30.03,SW,229,10.0,11.0,81,0.00,,SCT060,0.00,49.00,VWS V14.01,2013-08-11 22:03:00,
2013-08-11 18:08:00,85.5,79.4,30.03,SSW,196,12.0,15.0,82,0.00,,SCT060,0.00,40.00,VWS V14.01,2013-08-11 22:08:00,
2013-08-11 18:13:00,84.7,79.3,30.03,SW,236,8.0,12.0,84,0.00,,SCT060,0.00,47.00,VWS V14.01,2013-08-11 22:13:00,
2013-08-11 18:18:00,84.3,78.9,30.03,SW,219,12.0,14.0,84,0.00,,SCT060,0.00,60.00,VWS V14.01,2013-08-11 22:18:00,
2013-08-11 18:23:00,84.1,79.1,30.03,SW,230,11.0,15.0,85,0.00,,SCT060,0.00,83.00,VWS V14.01,2013-08-11 22:23:00,
2013-08-11 18:28:00,84.2,79.2,30.03,SSW,209,8.0,15.0,85,0.00,,SCT060,0.00,294.00,VWS V14.01,2013-08-11 22:28:00,
2013-08-11 18:33:00,84.3,79.3,30.03,SW,232,11.0,11.0,85,0.00,,SCT060,0.00,74.00,VWS V14.01,2013-08-11 22:33:00,
2013-08-11 18:38:00,84.3,79.3,30.03,SSW,209,7.0,15.0,85,0.00,,SCT060,0.00,127.00,VWS V14.01,2013-08-11 22:38:00,
2013-08-11 18:43:00,84.3,79.3,30.03,SSW,197,12.0,14.0,85,0.00,,SCT060,0.00,190.00,VWS V14.01,2013-08-11 22:43:00,
2013-08-11 18:48:00,84.4,79.4,30.03,SSW,211,9.0,15.0,85,0.00,,SCT060,0.00,130.00,VWS V14.01,2013-08-11 22:48:00,
2013-08-11 18:53:00,84.3,79.3,30.03,SW,224,8.0,12.0,85,0.00,,SCT060,0.00,53.00,VWS V14.01,2013-08-11 22:53:00,
2013-08-11 18:58:00,84.2,79.2,30.03,SSW,213,6.0,9.0,85,0.00,,SCT060,0.00,44.00,VWS V14.01,2013-08-11 22:58:00,
2013-08-11 19:03:00,84.2,79.2,30.03,SW,217,7.0,10.0,85,0.00,,SCT060,0.00,107.00,VWS V14.01,2013-08-11 23:03:00,
2013-08-11 19:08:00,84.2,79.2,30.03,SW,236,9.0,13.0,85,0.00,,SCT060,0.00,44.00,VWS V14.01,2013-08-11 23:08:00,
2013-08-11 19:14:00,84.1,79.1,30.03,WSW,254,8.0,10.0,85,0.00,,SCT060,0.00,40.00,VWS V14.01,2013-08-11 23:14:00,
2013-08-11 19:19:00,84.0,79.0,30.03,SW,232,6.0,7.0,85,0.00,,SCT060,0.00,70.00,VWS V14.01,2013-08-11 23:19:00,
2013-08-11 19:24:00,84.0,78.7,30.03,SSW,196,8.0,11.0,84,0.00,,SCT060,0.00,35.00,VWS V14.01,2013-08-11 23:24:00,
2013-08-11 19:29:00,84.1,78.4,30.03,SW,225,7.0,14.0,83,0.00,,SCT060,0.00,32.00,VWS V14.01,2013-08-11 23:29:00,
2013-08-11 19:34:00,84.3,78.2,30.03,SW,233,12.0,13.0,82,0.00,,SCT060,0.00,26.00,VWS V14.01,2013-08-11 23:34:00,
2013-08-11 19:39:00,84.6,78.1,30.03,SSW,208,6.0,13.0,81,0.00,,SCT060,0.00,25.00,VWS V14.01,2013-08-11 23:39:00,
2013-08-11 19:44:00,84.7,78.2,30.03,SSW,198,11.0,14.0,81,0.00,,SCT060,0.00,21.00,VWS V14.01,2013-08-11 23:44:00,
2013-08-11 19:49:00,84.6,78.1,30.03,SSW,200,7.0,11.0,81,0.00,,SCT060,0.00,18.00,VWS V14.01,2013-08-11 23:49:00,
2013-08-11 19:55:00,84.5,78.4,30.03,SW,232,5.0,9.0,82,0.00,,SCT060,0.00,12.00,VWS V14.01,2013-08-11 23:55:00,
2013-08-11 20:00:00,84.5,78.4,30.03,SSW,208,4.0,9.0,82,0.00,,SCT060,0.00,9.00,VWS V14.01,2013-08-12 00:00:00,
2013-08-11 20:05:00,84.5,78.0,30.03,SW,217,8.0,9.0,81,0.00,,CLR,0.00,5.00,VWS V14.01,2013-08-12 00:05:00,
2013-08-11 20:10:00,84.7,78.2,30.03,SW,215,9.0,9.0,81,0.00,,CLR,0.00,0.00,VWS V14.01,2013-08-12 00:10:00,
2013-08-11 20:15:00,84.7,78.2,30.03,SW,224,6.0,8.0,81,0.00,,CLR,0.00,0.00,VWS V14.01,2013-08-12 00:15:00,
2013-08-11 20:20:00,84.7,78.6,30.04,SW,221,11.0,11.0,82,0.00,,CLR,0.00,0.00,VWS V14.01,2013-08-12 00:20:00,
2013-08-11 20:25:00,84.4,78.7,30.04,SSW,207,7.0,9.0,83,0.00,,CLR,0.00,0.00,VWS V14.01,2013-08-12 00:25:00,
2013-08-11 20:30:00,84.0,78.7,30.04,SSW,200,7.0,10.0,84,0.00,,CLR,0.00,0.00,VWS V14.01,2013-08-12 00:30:00,
2013-08-11 20:35:00,83.6,78.6,30.04,WSW,238,10.0,10.0,85,0.00,,CLR,0.00,0.00,VWS V14.01,2013-08-12 00:35:00,
2013-08-11 20:40:00,83.3,78.7,30.05,SSW,202,7.0,8.0,86,0.00,,CLR,0.00,0.00,VWS V14.01,2013-08-12 00:40:00,
2013-08-11 20:45:00,83.1,78.8,30.04,SW,218,8.0,10.0,87,0.00,,CLR,0.00,0.00,VWS V14.01,2013-08-12 00:45:00,
2013-08-11 20:50:00,83.0,78.7,30.05,SW,218,8.0,9.0,87,0.00,,CLR,0.00,0.00,VWS V14.01,2013-08-12 00:50:00,
2013-08-11 20:56:00,82.9,79.0,30.05,South,190,8.0,10.0,88,0.00,,CLR,0.00,0.00,VWS V14.01,2013-08-12 00:56:00,
2013-08-11 21:01:00,82.9,79.0,30.05,SSW,212,6.0,8.0,88,0.00,,SKC,0.00,0.00,VWS V14.01,2013-08-12 01:01:00,
2013-08-11 21:06:00,82.8,78.9,30.05,SSW,212,6.0,10.0,88,0.00,,SKC,0.00,0.00,VWS V14.01,2013-08-12 01:06:00,
2013-08-11 21:11:00,82.8,78.9,30.05,SW,215,7.0,11.0,88,0.00,,SKC,0.00,0.00,VWS V14.01,2013-08-12 01:11:00,
2013-08-11 21:16:00,82.8,78.9,30.05,SW,228,4.0,10.0,88,0.00,,SKC,0.00,0.00,VWS V14.01,2013-08-12 01:16:00,
2013-08-11 21:21:00,82.7,78.8,30.05,SW,227,4.0,9.0,88,0.00,,SKC,0.00,0.00,VWS V14.01,2013-08-12 01:21:00,
2013-08-11 21:26:00,82.6,78.7,30.05,SSW,195,4.0,9.0,88,0.00,,SKC,0.00,0.00,VWS V14.01,2013-08-12 01:26:00,
2013-08-11 21:31:00,82.6,78.7,30.05,SW,230,7.0,10.0,88,0.00,,SKC,0.00,0.00,VWS V14.01,2013-08-12 01:31:00,
2013-08-11 21:36:00,82.5,78.9,30.05,SSW,211,4.0,10.0,89,0.00,,SKC,0.00,0.00,VWS V14.01,2013-08-12 01:36:00,
2013-08-11 21:41:00,82.4,78.8,30.05,SSW,198,7.0,7.0,89,0.00,,SKC,0.00,0.00,VWS V14.01,2013-08-12 01:41:00,
2013-08-11 21:46:00,82.3,78.7,30.05,SW,226,8.0,13.0,89,0.00,,SKC,0.00,0.00,VWS V14.01,2013-08-12 01:46:00,
2013-08-11 21:51:00,82.3,78.7,30.05,SW,224,4.0,11.0,89,0.00,,SKC,0.00,0.00,VWS V14.01,2013-08-12 01:51:00,
2013-08-11 21:56:00,82.2,78.6,30.06,SW,221,6.0,9.0,89,0.00,,SKC,0.00,0.00,VWS V14.01,2013-08-12 01:56:00,
2013-08-11 22:01:00,82.1,78.5,30.06,SW,229,4.0,10.0,89,0.00,,SKC,0.00,0.00,VWS V14.01,2013-08-12 02:01:00,
2013-08-11 22:07:00,82.2,78.3,30.06,SSW,201,4.0,4.0,88,0.00,,SKC,0.00,0.00,VWS V14.01,2013-08-12 02:07:00,
2013-08-11 22:12:00,82.3,78.4,30.06,SW,231,7.0,7.0,88,0.00,,SKC,0.00,0.00,VWS V14.01,2013-08-12 02:12:00,
2013-08-11 22:17:00,82.3,78.1,30.06,SSW,213,7.0,7.0,87,0.00,,SKC,0.00,0.00,VWS V14.01,2013-08-12 02:17:00,
2013-08-11 22:22:00,82.5,77.9,30.06,WSW,239,6.0,7.0,86,0.00,,SKC,0.00,0.00,VWS V14.01,2013-08-12 02:22:00,
2013-08-11 22:27:00,82.7,78.1,30.06,SW,221,6.0,6.0,86,0.00,,SKC,0.00,0.00,VWS V14.01,2013-08-12 02:27:00,
2013-08-11 22:32:00,82.7,77.7,30.06,SW,228,5.0,8.0,85,0.00,,SKC,0.00,0.00,VWS V14.01,2013-08-12 02:32:00,
2013-08-11 22:37:00,82.7,77.7,30.06,SW,214,3.0,5.0,85,0.00,,SKC,0.00,0.00,VWS V14.01,2013-08-12 02:37:00,
2013-08-11 22:42:00,82.7,77.7,30.06,SSW,211,5.0,6.0,85,0.00,,SKC,0.00,0.00,VWS V14.01,2013-08-12 02:42:00,
2013-08-11 22:48:00,82.7,77.4,30.06,West,264,6.0,6.0,84,0.00,,SKC,0.00,0.00,VWS V14.01,2013-08-12 02:48:00,
2013-08-11 22:53:00,82.8,77.5,30.06,West,264,3.0,9.0,84,0.00,,SKC,0.00,0.00,VWS V14.01,2013-08-12 02:53:00,
2013-08-11 22:57:00,82.8,77.1,30.06,SW,217,5.0,5.0,83,0.00,,SKC,0.00,0.00,VWS V14.01,2013-08-12 02:57:00,
2013-08-11 23:03:00,82.9,77.2,30.06,SW,223,5.0,7.0,83,0.00,,SKC,0.00,0.00,VWS V14.01,2013-08-12 03:03:00,
2013-08-11 23:08:00,82.9,76.8,30.06,WSW,239,4.0,9.0,82,0.00,,SKC,0.00,0.00,VWS V14.01,2013-08-12 03:08:00,
2013-08-11 23:13:00,83.0,76.9,30.06,West,277,3.0,5.0,82,0.00,,SKC,0.00,0.00,VWS V14.01,2013-08-12 03:13:00,
2013-08-11 23:18:00,83.0,76.9,30.06,SW,221,5.0,7.0,82,0.00,,SKC,0.00,0.00,VWS V14.01,2013-08-12 03:18:00,
2013-08-11 23:23:00,82.9,76.5,30.06,SSW,200,6.0,9.0,81,0.00,,CLR,0.00,0.00,VWS V14.01,2013-08-12 03:23:00,
2013-08-11 23:28:00,83.0,76.6,30.06,SSW,209,5.0,8.0,81,0.00,,CLR,0.00,0.00,VWS V14.01,2013-08-12 03:28:00,
2013-08-11 23:33:00,82.9,76.5,30.07,SW,218,5.0,6.0,81,0.00,,CLR,0.00,0.00,VWS V14.01,2013-08-12 03:33:00,
2013-08-11 23:38:00,83.0,76.2,30.07,SW,215,5.0,9.0,80,0.00,,CLR,0.00,0.00,VWS V14.01,2013-08-12 03:38:00,
2013-08-11 23:43:00,83.0,76.2,30.07,SSW,197,4.0,7.0,80,0.00,,CLR,0.00,0.00,VWS V14.01,2013-08-12 03:43:00,
2013-08-11 23:48:00,82.9,76.1,30.06,SSW,192,6.0,7.0,80,0.00,,CLR,0.00,0.00,VWS V14.01,2013-08-12 03:48:00,
2013-08-11 23:53:00,82.9,76.1,30.07,SSW,211,5.0,7.0,80,0.00,,CLR,0.00,0.00,VWS V14.01,2013-08-12 03:53:00,
2013-08-11 23:58:00,82.8,76.0,30.07,SSW,193,9.0,10.0,80,0.00,,CLR,0.00,0.00,VWS V14.01,2013-08-12 03:58:00,